Location: N�rnberg
(49.4471°N, 11.0632°E)
Time: 00:21:17
(UTC+02:00)

UNISAT 6 - Visible Passes

Search period start: 19 April 2026 00:00
Search period end: 29 April 2026 00:00
Orbit: 574 x 635 km, 97.8° (Epoch: 17 April)

Date Brightness Start Highest point End Pass type
(mag) Time Alt. Az. Time Alt. Az. Time Alt. Az.
19 Apr ? 02:51:00 10° E 02:53:34 15° ENE 02:56:08 10° NNE visible
19 Apr ? 04:24:30 10° S 04:28:47 78° WSW 04:33:13 10° NNW visible
20 Apr ? 03:02:46 10° ESE 03:05:53 19° ENE 03:09:02 10° NNE visible
20 Apr ? 04:36:59 10° S 04:41:17 59° W 04:45:41 10° NNW visible
21 Apr ? 03:14:43 10° ESE 03:18:15 24° ENE 03:21:48 10° N visible
21 Apr ? 04:49:37 10° S 04:53:48 44° W 04:58:03 10° NNW visible
22 Apr ? 03:26:46 10° SE 03:30:36 30° ENE 03:34:30 10° N visible
22 Apr ? 05:02:22 10° SSW 05:06:21 34° W 05:10:24 10° NNW visible
23 Apr ? 03:38:55 10° SE 03:43:00 39° ENE 03:47:07 10° N visible
23 Apr ? 05:15:13 10° SSW 05:18:54 26° W 05:22:39 10° NW visible
24 Apr ? 03:51:09 10° SE 03:55:24 51° ENE 03:59:42 10° N visible
24 Apr ? 05:28:13 10° SW 05:31:30 20° W 05:34:48 10° NW visible
25 Apr ? 02:32:03 10° ENE 02:32:52 10° NE 02:33:41 10° NE visible
25 Apr ? 04:03:28 10° SSE 04:07:49 67° ENE 04:12:14 10° N visible
26 Apr ? 02:43:03 10° E 02:45:09 13° ENE 02:47:15 10° NNE visible
26 Apr ? 04:15:52 10° SSE 04:20:16 87° ENE 04:24:44 10° NNW visible
27 Apr ? 02:54:39 10° E 02:57:26 17° ENE 03:00:14 10° NNE visible
27 Apr ? 04:28:20 10° S 04:32:44 71° WSW 04:37:10 10° NNW visible
28 Apr ? 03:06:28 10° ESE 03:09:45 21° ENE 03:13:03 10° NNE visible
28 Apr ? 04:40:54 10° S 04:45:13 54° W 04:49:34 10° NNW visible
